Location: Lafig�re
(44.4503°N, 4.0357°E)
Time: 05:47:18
(UTC+00:00)

Transit 2A Rocket - Pass Details

Date: 23 June 2021
Orbit: 590 x 913 km, 66.7° (Epoch: 26 July)

Event Time Altitude Azimuth Distance (km) Brightness Sun altitude
Exits shadow 01:12:03 - 274° (W) 2,269 7.3 -19.3°
Reaches altitude 10° 01:13:20 10° 287° (WNW) 1,947 7.1 -19.2°
Maximum altitude 01:15:53 15° 323° (NW) 1,665 7.1 -19.1°
Drops below altitude 10° 01:18:31 10° 359° (N) 2,016 8.2 -18.9°
Sets 01:21:49 0° 22° (NNE) 2,986 9.8 -18.7°
